FENGYUN 1C DEB, 31977

Orbit data source: Space-Track

FENGYUN 1C DEB, 31977 is space debris in SSO originally from a launch on Mon, 10 May 1999 UTC launched from the Taiyaun Space Center, China (TSC). Fengyun 1C debris stems from the Chinese weather satellite Fengyun-1C, which was intentionally destroyed by a Chinese anti-satellite missile in 2007. This event dramatically increased the amount of space debris, with thousands of trackable fragments posing hazards to satellites and human spaceflight. The Fengyun 1C debris cloud has become a focal point in discussions about space sustainability and the need for international regulations to prevent the creation of new debris.

Loading next visibility...
Identifier
31977, 1999-025CPE
Orbit
SSO
Country
Flag of CNCN / PRC
Related business
Manufacturer
Unknown
Mission
Spacecraft
Bus & Motor
Unknown
Mass
Unknown
Launch date (UTC)
1999-05-10 (27 years ago)
Launch vehicle
Unknown
Launch site
Taiyaun Space Center, China (TSC)
Object type
Payload
Rocket body
Debris
Shape & HBR
Unknown shape, 1.1 m
Radar Cross Section
Medium (>0.1 m² and <1 m²)

Expand to show TLE details & history
Last TLE update: 1 week ago

TLE from 1 week ago
0 FENGYUN 1C DEB
1 31977U 99025CPE 26200.17353076  .00000614  00000-0  44651-3 0  9998
2 31977  98.2063 340.6511 0269293 345.1459  14.1898 13.83577709652328
Epoch: 2026-07-19T04:09Z
TLE epoch observation values (Epoch: 2026-07-19T04:09:53.057Z)
Latitude
-0.00006°
Longitude
-18.79569°
Altitude
763.05 km
Speed
7.569 km/s
True Right ascension
22h 42m 36s
True Declination
0° 00' 00"
Sunlit
Object was in full shadow at epoch
Visualization orbit readout
Latitude
Unknown
Longitude
Unknown
Altitude
Unknown
Speed
Unknown
Apparent Right ascension
Unknown
Apparent Declination
Unknown
Sunlit
N/A
Visualization observer readout
Local Sidereal Time
08:46:16
Azimuth
Unknown
Elevation
Unknown
Doppler factor
Unknown
Orbital elements
Apogee altitude
1,145.704 km
Perigee altitude
751.107 km
Semi-major axis
7,326.543 km
Eccentricity
0.02693
Inclination
98.2063°
RAAN
340.6511°
Arg. of periapsis
345.1459°
True anomaly
14.97171°
Mean anomaly
14.1898°
Eccentric anomaly
14.57816°
Mean motion
3.46094 °/min
Orbital period
104.02 mins
BSTAR
0.00044651
Loading maneuver chart data...
Computing Atmospheric mass density...
Loading historical data...
Loading historical data...
Loading historical data...
Loading historical data...
Loading historical data...
Loading historical data...
Loading historical data...

Documentation

Showing up to 5 results
|